Cut Bank, MT

11:06 AM MST on November 13, 2019 (GMT -0700)
Cut Bank Municipal

Weather History for KCTB - September, 2019

Change the Weather History Date:

Monday, September 2, 2019

  Actual Average Record
Temperature  
Mean Temperature 64 °F 59 °F  
Max Temperature 79 °F 73 °F 92 °F (1969)
Min Temperature 48 °F 44 °F 28 °F (1956)
Degree Days  
Heating Degree Days 2 7  
Month to date heating degree days 2 14  
Since 1 July heating degree days 175 208  
Cooling Degree Days 0 1  
Month to date cooling degree days 0 2  
Year to date cooling degree days 104 155  
Growing Degree Days 14 (Base 50)    
Moisture  
Dew Point 45 °F    
Average Humidity 52    
Maximum Humidity 83    
Minimum Humidity 23    
Precipitation  
Precipitation 0.00 in 0.04 in 0.90 in (1941)
Month to date precipitation 0.00 0.08  
Year to date precipitation 8.83 8.74  
Snow  
Snow - - - ()
Snow Depth 0.00 in    
Sea Level Pressure  
Sea Level Pressure 29.95 in    
Wind  
Wind Speed 8 mph ()    
Max Wind Speed 24 mph    
Max Gust Speed 29 mph    
Visibility 10.0 miles    
Events      
T = Trace of Precipitation, MM = Missing Value Source: Averaged Metar Reports

Daily Weather History Graph

Daily Weather History Graph

Search for Another Location

Airport or City:

Astronomy

Sep. 02, 2019 Rise Set
Actual Time 6:47 AM MDT 8:09 PM MDT
Civil Twilight 6:15 AM MDT 8:42 PM MDT
Nautical Twilight 5:35 AM MDT 9:21 PM MDT
Astronomical Twilight 4:53 AM MDT 10:03 PM MDT
Moon 10:51 AM MDT (9/2) 10:13 PM MDT (9/2)
Length of Visible Light 14h 26m
Length of Day
13h 21m
Waxing Crescent, 16% of the Moon is Illuminated
Sep 2
Waxing Crescent
Sep 5
First Quarter
Sep 13
Full
Sep 21
Last Quarter
Sep 28
New

Hourly Weather History & Observations

Time (MDT) Temp. Dew Point Humidity Pressure Visibility Wind Dir Wind Speed Gust Speed Precip Events Conditions
12:56 AM 64.9 °F 50.0 °F 58% 29.86 in 10.0 mi SSE 11.5 mph - N/A   Clear
1:56 AM 61.0 °F 48.9 °F 64% 29.85 in 10.0 mi SSE 6.9 mph - N/A   Clear
2:56 AM 57.9 °F 48.9 °F 72% 29.85 in 10.0 mi SSW 3.5 mph - N/A   Clear
3:56 AM 55.0 °F 46.0 °F 72% 29.86 in 10.0 mi NE 4.6 mph - N/A   Clear
4:56 AM 51.1 °F 45.0 °F 80% 29.87 in 10.0 mi North 3.5 mph - N/A   Clear
5:56 AM 50.0 °F 45.0 °F 83% 29.88 in 10.0 mi Calm Calm - N/A   Clear
6:56 AM 48.9 °F 44.1 °F 83% 29.90 in 10.0 mi North 9.2 mph 17.3 mph N/A   Clear
7:56 AM 53.1 °F 45.0 °F 74% 29.93 in 10.0 mi North 11.5 mph - N/A   Mostly Cloudy
8:56 AM 63.0 °F 46.9 °F 56% 29.94 in 10.0 mi North 10.4 mph - N/A   Scattered Clouds
9:56 AM 66.9 °F 48.0 °F 51% 29.93 in 10.0 mi Variable 4.6 mph - N/A   Clear
10:56 AM 73.0 °F 45.0 °F 37% 29.94 in 10.0 mi WNW 11.5 mph - N/A   Clear
11:56 AM 78.1 °F 37.0 °F 23% 29.92 in 10.0 mi WNW 8.1 mph 17.3 mph N/A   Clear
12:56 PM 77.0 °F 44.1 °F 31% 29.92 in 10.0 mi NNW 20.7 mph 28.8 mph N/A   Partly Cloudy
1:56 PM 75.9 °F 46.9 °F 36% 29.94 in 10.0 mi North 20.7 mph 26.5 mph N/A   Clear
2:56 PM 75.0 °F 46.0 °F 36% 29.96 in 10.0 mi North 13.8 mph 26.5 mph N/A   Clear
3:56 PM 75.9 °F 46.0 °F 35% 29.96 in 10.0 mi North 15.0 mph - N/A   Clear
4:56 PM 75.0 °F 46.0 °F 36% 29.98 in 10.0 mi North 16.1 mph 24.2 mph N/A   Partly Cloudy
5:56 PM 73.0 °F 43.0 °F 34% 30.00 in 10.0 mi NNE 15.0 mph - N/A   Clear
6:56 PM 71.1 °F 44.1 °F 38% 30.01 in 10.0 mi NNE 16.1 mph - N/A   Clear
7:56 PM 64.9 °F 42.1 °F 43% 30.04 in 10.0 mi NE 11.5 mph - N/A   Clear
8:56 PM 60.1 °F 41.0 °F 49% 30.06 in 10.0 mi ENE 6.9 mph - N/A   Clear
9:56 PM 57.9 °F 39.9 °F 51% 30.09 in 10.0 mi ESE 3.5 mph - N/A   Clear
10:56 PM 54.0 °F 39.9 °F 59% 30.08 in 10.0 mi Calm Calm - N/A   Clear
11:56 PM 54.0 °F 39.9 °F 59% 30.08 in 10.0 mi WSW 4.6 mph - N/A   Clear